Weather History for Las Americas, Dominican Republic

Change the Weather History Date:

Saturday, November 17, 2012

  Actual Average Record
Temperature  
Mean Temperature 82 °F -  
Max Temperature 88 °F 86 °F 90 °F (2013)
Min Temperature 75 °F 68 °F 66 °F (2004)
Cooling Degree Days 16    
Growing Degree Days 32 (Base 50)    
Moisture  
Dew Point 74 °F    
Average Humidity 84    
Maximum Humidity 94    
Minimum Humidity 70    
Precipitation  
Precipitation 0.00 in 0.11 in - ()
Sea Level Pressure  
Sea Level Pressure 29.92 in    
Wind  
Wind Speed 3 mph ()    
Max Wind Speed 6 mph    
Max Gust Speed -    
Visibility 6.9 miles    
Events      
Averages and records for this station are not official NWS values.
T = Trace of Precipitation, MM = Missing Value Source: Averaged Metar Reports

Daily Weather History Graph

Daily Weather History Graph

Search for Another Location

Airport:

Trip Planner

Search our weather history database for the weather conditions in past years. The results will help you decide how hot, cold, wet, or windy it might be!

Date:

Astronomy

Nov. 17, 2012 Rise Set
Actual Time 6:46 AM AST 6:00 PM AST
Civil Twilight 6:23 AM AST 6:23 PM AST
Nautical Twilight 5:56 AM AST 6:50 PM AST
Astronomical Twilight 5:30 AM AST 7:16 PM AST
Moon 10:27 AM AST (11/17) 10:04 PM AST (11/17)
Length of Visible Light 12h 00m
Length of Day
11h 14m
Waxing Crescent, 19% of the Moon is Illuminated
Nov 17
Waxing Crescent
Nov 20
First Quarter
Nov 28
Full
Dec 6
Last Quarter
Dec 13
New

Hourly Weather History & Observations

Time (AST) Temp. Heat Index Dew Point Humidity Pressure Visibility Wind Dir Wind Speed Gust Speed Precip Events Conditions
12:00 AM 77.0 °F - 73.4 °F 89% 29.92 in 6.2 mi ENE 4.6 mph - N/A   Scattered Clouds
1:00 AM 77.0 °F - 73.4 °F 89% 29.92 in 6.2 mi Calm Calm - N/A   Scattered Clouds
2:00 AM 75.2 °F - 71.6 °F 89% 29.89 in 6.2 mi North 4.6 mph - N/A   Scattered Clouds
3:00 AM 75.2 °F - 73.4 °F 94% 29.89 in 6.2 mi Calm Calm - N/A   Scattered Clouds
4:00 AM 75.2 °F - 73.4 °F 94% 29.89 in 6.2 mi Calm Calm - N/A   Scattered Clouds
5:00 AM 75 °F - 73 °F 91% 29.89 in 10 mi Calm Calm - -   Partly Cloudy
5:00 AM 75.2 °F - 73.4 °F 94% 29.89 in 6.2 mi Calm Calm - N/A   Scattered Clouds
6:00 AM 75.2 °F - 73.4 °F 94% 29.89 in 6.2 mi NNE 5.8 mph - N/A   Scattered Clouds
7:00 AM 75.2 °F - 73.4 °F 94% 29.89 in 6.2 mi NNE 5.8 mph - N/A   Scattered Clouds
8:00 AM 77.0 °F - 73.4 °F 89% 29.92 in 6.2 mi NNE 5.8 mph - N/A   Mostly Cloudy
9:00 AM 78.8 °F - 75.2 °F 89% 29.95 in 6.2 mi NNE 4.6 mph - N/A   Mostly Cloudy
10:00 AM 80.6 °F 86.2 °F 75.2 °F 84% 29.95 in 6.2 mi NNE 5.8 mph - N/A   Mostly Cloudy
11:00 AM 82 °F - 74 °F 72% 29.96 in 10 mi ENE 4.5 mph - -   Partly Cloudy
11:00 AM 82.4 °F 89.5 °F 75.2 °F 79% 29.95 in 6.2 mi ENE 4.6 mph - N/A   Mostly Cloudy
12:00 PM 84.2 °F 92.3 °F 75.2 °F 74% 29.95 in 6.2 mi SE 5.8 mph - N/A   Mostly Cloudy
1:00 PM 84.2 °F 90.9 °F 73.4 °F 70% 29.92 in 6.2 mi SSE 5.8 mph - N/A   Scattered Clouds
2:00 PM 86.0 °F 95.1 °F 75.2 °F 70% 29.89 in 6.2 mi SSE 5.8 mph - N/A   Scattered Clouds
3:00 PM 84.2 °F 92.3 °F 75.2 °F 74% 29.89 in 6.2 mi Variable 3.5 mph - N/A   Mostly Cloudy
4:00 PM 82.4 °F 89.5 °F 75.2 °F 79% 29.89 in 6.2 mi Variable 3.5 mph - N/A   Mostly Cloudy
5:00 PM 82 °F - 75 °F 75% 29.89 in 10 mi 4.5 mph - -   Mostly Cloudy
5:00 PM 82.4 °F 89.5 °F 75.2 °F 79% 29.89 in 6.2 mi Variable 3.5 mph - N/A   Mostly Cloudy
6:00 PM 80.6 °F 86.2 °F 75.2 °F 84% 29.89 in 6.2 mi Variable 3.5 mph - N/A   Mostly Cloudy
7:00 PM 80.6 °F 86.2 °F 75.2 °F 84% 29.89 in 6.2 mi Calm Calm - N/A   Mostly Cloudy
8:00 PM 78 °F - 74 °F 84% 29.94 in 10 mi 4.5 mph - -   Partly Cloudy
8:00 PM 78.8 °F - 73.4 °F 83% 29.92 in 6.2 mi Variable 3.5 mph - N/A   Mostly Cloudy
9:00 PM 77.0 °F - 73.4 °F 89% 29.95 in 6.2 mi NE 4.6 mph - N/A   Mostly Cloudy
10:00 PM 77.0 °F - 73.4 °F 89% 29.95 in 6.2 mi NE 4.6 mph - N/A   Mostly Cloudy
11:00 PM 76 °F - 72 °F 84% 29.95 in 10 mi Calm Calm - -   Partly Cloudy
11:00 PM 75.2 °F - 71.6 °F 89% 29.95 in 6.2 mi Calm Calm - N/A   Mostly Cloudy